Location: ????????
(55.4000°N, 39.1167°E)
Time: 09:22:48
(UTC+00:00)

NOSS 3-2 (A) - Visible Passes

Search period start: 09 June 2026 00:00
Search period end: 19 June 2026 00:00
Orbit: 669 x 1534 km, 63.4° (Epoch: 2 January)

Date Brightness Start Highest point End Pass type
(mag) Time Alt. Az. Time Alt. Az. Time Alt. Az.
9 Jun 3.2 19:51:42 10° SW 19:56:57 85° SE 20:03:26 10° NE visible
9 Jun 4.6 21:42:50 10° W 21:48:18 46° NNW 21:55:02 10° ENE visible
9 Jun 5.0 23:34:20 10° WNW 23:40:20 46° NNE 23:47:43 10° E visible
10 Jun 3.3 19:05:49 10° SSW 19:10:53 61° SE 19:17:04 10° NE visible
10 Jun 4.3 20:56:25 10° W 21:01:50 53° NNW 21:08:31 10° NE visible
10 Jun 5.0 22:48:01 10° WNW 22:53:47 43° N 23:00:54 10° ENE visible
11 Jun 3.8 20:10:05 10° WSW 20:15:27 65° NNW 20:22:06 10° NE visible
11 Jun 5.0 22:01:37 10° WNW 22:07:13 42° N 22:14:08 10° ENE visible
12 Jun 3.4 19:23:53 10° SW 19:29:11 84° NW 19:35:44 10° NE visible
12 Jun 4.8 21:15:11 10° W 21:20:41 44° N 21:27:28 10° ENE visible
12 Jun 4.9 23:06:37 10° WNW 23:12:43 48° NNE 23:20:14 10° E visible
13 Jun 4.5 20:28:45 10° W 20:34:11 50° NNW 20:40:53 10° ENE visible
13 Jun 5.0 22:20:19 10° WNW 22:26:11 44° N 22:33:25 10° E visible
14 Jun 4.1 19:42:22 10° WSW 19:47:45 59° NNW 19:54:25 10° NE visible
14 Jun 5.0 21:33:57 10° WNW 21:39:37 42° N 21:46:36 10° ENE visible
14 Jun 4.6 23:25:06 10° NW 23:31:33 60° NNE 23:39:32 10° ESE visible
15 Jun 3.6 18:56:06 10° WSW 19:01:26 75° NNW 19:08:02 10° NE visible
15 Jun 4.9 20:47:31 10° WNW 20:53:04 43° N 20:59:53 10° ENE visible
15 Jun 4.8 22:38:53 10° WNW 22:45:06 51° NNE 22:52:46 10° E visible
16 Jun 4.7 20:01:04 10° W 20:06:32 47° NNW 20:13:16 10° ENE visible
16 Jun 5.0 21:52:36 10° WNW 21:58:35 46° NNE 22:05:56 10° E visible
17 Jun 4.3 19:14:40 10° W 19:20:05 54° NNW 19:26:46 10° NE visible
17 Jun 5.0 21:06:15 10° WNW 21:12:01 43° N 21:19:06 10° ENE visible
17 Jun 4.4 22:57:19 10° NW 23:03:52 65° NNE 23:12:00 10° ESE visible
18 Jun 5.0 20:19:51 10° WNW 20:25:27 43° N 20:32:20 10° ENE visible
18 Jun 4.7 22:11:07 10° NW 22:17:27 54° NNE 22:25:15 10° E visible
